[[{"header":{"parameterUnit":"m.s-1","parameterCategory":1,"la1":30.2991,"la2":30.254,"lo1":-89.0895,"lo2":-89.0444,"dy":0.0017,"dx":0.0017,"nx":28,"ny":28,"refTime":"2023-05-01T21:00:00:Z","depth":0,"parameterNumber":2,"parameterNumberName":"U-component_of_WINDS"},"data":[0,0,0,0,0,0,0,0,0,0,0,0,0,0,0,0,0,0,0,0,0,0,0,0,0,0,0,0,0,0,0,0,0,0,0,0,0,0,0,0,0,0,0,0,0,0,0,0,0,0,0,0,0,0,0,0,0,0,-1.5476,-1.5475,0,-1.5453,-1.5452,-1.5452,-1.5436,-1.5436,-1.5436,-1.5436,-1.5411,-1.5411,-1.541,0,0,0,0,0,0,0,0,0,0,0,0,0,-1.5504,-1.5503,-1.5476,-1.5475,-1.5475,-1.5453,-1.5452,-1.5452,-1.5436,-1.5436,-1.5436,-1.5436,-1.5411,-1.5411,-1.541,0,0,0,0,0,0,0,0,0,0,0,0,0,-1.5487,-1.5503,-1.5476,-1.5464,-1.5463,-1.5453,-1.5452,-1.5452,-1.5436,-1.5436,-1.5436,-1.5436,-1.5412,-1.5411,-1.541,-1.5408,0,0,-1.5407,-1.5407,0,0,0,0,0,0,0,0,-1.5488,-1.5486,-1.5466,-1.5465,-1.5464,-1.5447,-1.5453,-1.5437,-1.5436,-1.5446,-1.5436,-1.5436,-1.5423,-1.5421,-1.5417,-1.5407,-1.5406,-1.5407,-1.5407,-1.5407,-1.5406,0,0,0,0,0,0,0,-1.5489,-1.5487,-1.5466,-1.5466,-1.5464,-1.546,-1.5457,-1.545,-1.5436,-1.5445,-1.5444,-1.5442,-1.5422,-1.5418,-1.5417,-1.5406,-1.5407,-1.5407,-1.5406,-1.5406,-1.5392,-1.5392,0,0,0,0,0,0,-1.5492,-1.5488,-1.5467,-1.5466,-1.5476,-1.546,-1.5457,-1.5453,-1.5436,-1.5433,-1.5442,-1.5441,-1.542,-1.5418,-1.5416,-1.5412,-1.5407,-1.5406,-1.5405,-1.5392,-1.5392,-1.5392,0,0,0,0,0,0,-1.5493,-1.5491,-1.5468,-1.5477,-1.5473,-1.5459,-1.5455,-1.5452,-1.5448,-1.5433,-1.5431,-1.5441,-1.542,-1.5417,-1.541,-1.5411,-1.5405,-1.5405,-1.5392,-1.5392,-1.5392,-1.5406,0,0,0,0,0,0,-1.5494,-1.5491,-1.5491,-1.5477,-1.5473,-1.5464,-1.5455,-1.5452,-1.5447,-1.5446,-1.5431,-1.5429,-1.5419,-1.5412,-1.5409,-1.541,-1.5404,-1.5392,-1.5392,-1.5392,-1.5405,-1.5407,-1.5408,0,0,0,0,0,-1.5495,-1.5496,-1.5491,-1.5489,-1.5473,-1.5464,-1.5461,-1.5451,-1.5447,-1.5446,-1.5437,-1.5429,-1.5412,-1.5411,-1.5408,-1.5409,-1.5392,-1.5392,-1.5392,-1.5405,-1.5406,-1.5408,0,0,0,0,0,0,-1.551,-1.5494,-1.5488,-1.5484,-1.5476,-1.5461,-1.546,-1.5453,-1.5445,-1.5444,-1.543,-1.5427,-1.5422,-1.5415,-1.5414,-1.5406,-1.5401,-1.54,-1.5411,-1.5412,-1.5414,-1.5415,-1.5403,0,0,0,0,0,-1.5513,-1.5508,-1.5493,-1.5491,-1.5487,-1.5474,-1.547,-1.5462,-1.5453,-1.5449,-1.5439,-1.5429,-1.5421,-1.5416,-1.5408,-1.5404,-1.54,-1.5403,-1.5404,-1.5405,-1.5405,-1.5401,-1.5402,-1.5393,-1.5393,-1.5393,0,0,-1.5519,-1.5509,-1.5507,-1.5494,-1.5486,-1.548,-1.5471,-1.5466,-1.5461,-1.5448,-1.5441,-1.5433,-1.5421,-1.5416,-1.5413,-1.5409,-1.5407,-1.5406,-1.5407,-1.5406,-1.5402,-1.5403,-1.5403,-1.5394,-1.5393,-1.5393,0,0,-1.5526,-1.5519,-1.5516,-1.5508,-1.5497,-1.5488,-1.5487,-1.5474,-1.5468,-1.5461,-1.5451,-1.5445,-1.5432,-1.5423,-1.5418,-1.5421,-1.5413,-1.5419,-1.5425,-1.5421,-1.5422,-1.5423,-1.5423,-1.5424,-1.5419,-1.5419,-1.5419,0,-1.5535,-1.5526,-1.5515,-1.551,-1.5504,-1.5492,-1.5489,-1.5482,-1.5468,-1.5464,-1.5461,-1.5444,-1.5435,-1.5427,-1.5428,-1.5424,-1.5422,-1.542,-1.5423,-1.5423,-1.5424,-1.5424,-1.5425,-1.542,-1.5419,-1.5419,-1.5419,0,-1.5537,-1.5531,-1.553,-1.5517,-1.5512,-1.5507,-1.5495,-1.549,-1.5483,-1.5474,-1.5467,-1.5456,-1.5445,-1.5442,-1.5435,-1.5433,-1.5431,-1.5426,-1.542,-1.5425,-1.5426,-1.5426,-1.542,-1.542,-1.542,-1.542,0,0,-1.5554,-1.5535,-1.5535,-1.5528,-1.5514,-1.5509,-1.5504,-1.5494,-1.549,-1.548,-1.5475,-1.5464,-1.5458,-1.5452,-1.5443,-1.544,-1.5443,-1.5435,-1.5434,-1.5436,-1.5439,-1.5443,-1.5443,-1.5438,-1.5438,-1.5438,-1.5439,0,-1.5559,-1.555,-1.5539,-1.5533,-1.5527,-1.5515,-1.551,-1.5501,-1.5492,-1.5485,-1.5476,-1.5468,-1.5462,-1.5457,-1.5454,-1.5443,-1.5443,-1.5443,-1.5432,-1.5432,-1.5435,-1.5443,-1.5448,-1.545,-1.544,-1.544,-1.544,0,-1.5564,-1.5556,-1.5549,-1.5535,-1.5532,-1.5528,-1.5517,-1.5511,-1.55,-1.5493,-1.5486,-1.5477,-1.547,-1.5465,-1.5454,-1.5454,-1.5449,-1.5443,-1.5443,-1.5441,-1.5436,-1.5442,-1.5451,-1.5451,-1.544,-1.544,-1.544,0,-1.5577,-1.5564,-1.5558,-1.5553,-1.5536,-1.5534,-1.5526,-1.5515,-1.5509,-1.5499,-1.5495,-1.5485,-1.5479,-1.5471,-1.5459,-1.5456,-1.5449,-1.5443,-1.5443,-1.5444,-1.5442,-1.5443,-1.545,-1.5439,-1.5439,-1.5439,-1.5439,0,-1.5584,-1.558,-1.5563,-1.5559,-1.5554,-1.5542,-1.5537,-1.5529,-1.5518,-1.5512,-1.5501,-1.5495,-1.548,-1.5472,-1.5463,-1.5455,-1.5453,-1.5447,-1.5444,-1.5448,-1.5449,-1.5444,-1.5444,-1.5439,-1.5439,-1.5439,-1.5439,0,-1.5597,-1.5585,-1.5578,-1.5563,-1.5559,-1.5556,-1.5543,-1.5538,-1.5529,-1.5521,-1.5519,-1.5504,-1.5494,-1.5481,-1.5468,-1.5461,-1.5454,-1.545,-1.5458,-1.5457,-1.5457,-1.5457,-1.5462,-1.5462,-1.5452,-1.5452,-1.5452,0,-1.5602,-1.5599,-1.5583,-1.5579,-1.5572,-1.5564,-1.5558,-1.5546,-1.554,-1.5526,-1.5523,-1.5512,-1.5503,-1.5488,-1.5475,-1.5464,-1.546,-1.5462,-1.5458,-1.5462,-1.5459,-1.546,-1.5459,-1.5464,-1.5464,-1.5464,-1.5464,0,-1.5612,-1.5606,-1.5598,-1.5588,-1.5581,-1.5573,-1.5563,-1.556,-1.5545,-1.5539,-1.5529,-1.5522,-1.5507,-1.5497,-1.5484,-1.5476,-1.5467,-1.5465,-1.5465,-1.5468,-1.5473,-1.547,-1.5461,-1.5465,-1.5465,-1.5465,-1.5465,-1.5465,-1.5621,-1.5617,-1.5606,-1.5597,-1.5589,-1.558,-1.5575,-1.5565,-1.5557,-1.5544,-1.5537,-1.5527,-1.5514,-1.5496,-1.5488,-1.548,-1.5477,-1.5476,-1.5476,-1.5476,-1.5476,-1.5474,-1.5478,-1.5477,-1.5477,-1.5477,-1.5477,0,-1.563,-1.5622,-1.5614,-1.5601,-1.5594,-1.5587,-1.5576,-1.557,-1.5562,-1.5551,-1.5543,-1.5531,-1.552,-1.5506,-1.5495,-1.549,-1.5486,-1.5488,-1.5488,-1.5486,-1.548,-1.5482,-1.5491,-1.5491,-1.5491,-1.5491,-1.5491,-1.5491,-1.5634,-1.5627,-1.562,-1.5609,-1.56,-1.5591,-1.5585,-1.5577,-1.5568,-1.5555,-1.5547,-1.5538,-1.5526,-1.5513,-1.5502,-1.5499,-1.5494,-1.5497,-1.5492,-1.5487,-1.5486,-1.5485,-1.5486,-1.5497,-1.5497,-1.5498,-1.5498,-1.5498]},{"header":{"parameterUnit":"m.s-1","parameterCategory":1,"la1":30.2991,"la2":30.254,"lo1":-89.0895,"lo2":-89.0444,"dy":0.0017,"dx":0.0017,"nx":28,"ny":28,"refTime":"2023-05-01T21:00:00:Z","depth":0,"parameterNumber":3,"parameterNumberName":"V-component_of_WINDS"},"data":[0,0,0,0,0,0,0,0,0,0,0,0,0,0,0,0,0,0,0,0,0,0,0,0,0,0,0,0,0,0,0,0,0,0,0,0,0,0,0,0,0,0,0,0,0,0,0,0,0,0,0,0,0,0,0,0,0,0,-3.8031,-3.8031,0,-3.8018,-3.8018,-3.8018,-3.7987,-3.7986,-3.7986,-3.7985,-3.797,-3.7971,-3.7971,0,0,0,0,0,0,0,0,0,0,0,0,0,-3.803,-3.803,-3.8031,-3.8031,-3.8031,-3.8018,-3.8018,-3.8018,-3.7987,-3.7986,-3.7985,-3.7985,-3.797,-3.7971,-3.7971,0,0,0,0,0,0,0,0,0,0,0,0,0,-3.8025,-3.803,-3.8031,-3.8014,-3.8012,-3.8018,-3.8018,-3.8017,-3.7987,-3.7986,-3.7985,-3.7984,-3.797,-3.797,-3.7971,-3.7992,0,0,-3.7972,-3.7972,0,0,0,0,0,0,0,0,-3.8025,-3.8025,-3.8017,-3.8015,-3.8013,-3.8003,-3.8012,-3.8009,-3.7987,-3.7997,-3.7985,-3.7984,-3.7982,-3.7981,-3.7981,-3.7991,-3.799,-3.7972,-3.7972,-3.7972,-3.7972,0,0,0,0,0,0,0,-3.8026,-3.8025,-3.8026,-3.8017,-3.8015,-3.8007,-3.8005,-3.8011,-3.7995,-3.7996,-3.7994,-3.7992,-3.7981,-3.7981,-3.798,-3.799,-3.7972,-3.7972,-3.7972,-3.7972,-3.8017,-3.8018,0,0,0,0,0,0,-3.8029,-3.8026,-3.8026,-3.8025,-3.8017,-3.8008,-3.8006,-3.8007,-3.7995,-3.7992,-3.7993,-3.7991,-3.7981,-3.798,-3.798,-3.8004,-3.7972,-3.7972,-3.7972,-3.8016,-3.8018,-3.8019,0,0,0,0,0,0,-3.8029,-3.8029,-3.8027,-3.8025,-3.8024,-3.8009,-3.8011,-3.8008,-3.8007,-3.7993,-3.799,-3.7996,-3.798,-3.7979,-3.7989,-3.8003,-3.7972,-3.7973,-3.8015,-3.8017,-3.8018,-3.8051,0,0,0,0,0,0,-3.8029,-3.8029,-3.8037,-3.8026,-3.8025,-3.8037,-3.8012,-3.8008,-3.8008,-3.8005,-3.7994,-3.7992,-3.7979,-3.7989,-3.7989,-3.8002,-3.7973,-3.8014,-3.8016,-3.8018,-3.8049,-3.8054,-3.8058,0,0,0,0,0,-3.8029,-3.8046,-3.8037,-3.8038,-3.8034,-3.8038,-3.8037,-3.8022,-3.8009,-3.8017,-3.8008,-3.7992,-3.8001,-3.799,-3.799,-3.8004,-3.8013,-3.8015,-3.8018,-3.8047,-3.8053,-3.8058,0,0,0,0,0,0,-3.8059,-3.8044,-3.8034,-3.8049,-3.8045,-3.8032,-3.8041,-3.8029,-3.8028,-3.8025,-3.8006,-3.8004,-3.8017,-3.8011,-3.7999,-3.8024,-3.8005,-3.8007,-3.8027,-3.8032,-3.8037,-3.8038,-3.7973,0,0,0,0,0,-3.8067,-3.8072,-3.8059,-3.8073,-3.8071,-3.8057,-3.8058,-3.8047,-3.8042,-3.804,-3.8031,-3.8027,-3.8029,-3.803,-3.8031,-3.8048,-3.8046,-3.8058,-3.8062,-3.8066,-3.8068,-3.8078,-3.8083,-3.8026,-3.8026,-3.8026,0,0,-3.8084,-3.8077,-3.8081,-3.8079,-3.8074,-3.8079,-3.8056,-3.8062,-3.8065,-3.8041,-3.805,-3.8044,-3.8037,-3.8051,-3.8057,-3.8047,-3.8084,-3.8069,-3.8072,-3.8072,-3.8081,-3.8086,-3.8091,-3.8028,-3.8028,-3.8027,0,0,-3.8118,-3.8113,-3.8124,-3.8121,-3.8115,-3.8105,-3.8108,-3.8098,-3.8093,-3.8102,-3.8084,-3.8088,-3.8092,-3.8088,-3.8087,-3.8121,-3.8107,-3.8122,-3.8145,-3.8155,-3.8159,-3.8163,-3.8176,-3.818,-3.8124,-3.8124,-3.8124,0,-3.814,-3.8147,-3.8132,-3.8139,-3.8139,-3.8118,-3.813,-3.8127,-3.8121,-3.8121,-3.811,-3.8115,-3.8109,-3.8123,-3.8131,-3.8131,-3.8133,-3.8123,-3.816,-3.8163,-3.8167,-3.8179,-3.8183,-3.8126,-3.8126,-3.8126,-3.8126,0,-3.8175,-3.818,-3.819,-3.8186,-3.8187,-3.8196,-3.8182,-3.8185,-3.8175,-3.8166,-3.8176,-3.8169,-3.8168,-3.8171,-3.816,-3.8183,-3.8177,-3.8163,-3.8143,-3.8174,-3.8185,-3.819,-3.8129,-3.8128,-3.8128,-3.8127,0,0,-3.8226,-3.8214,-3.8218,-3.8217,-3.8209,-3.8213,-3.8222,-3.8222,-3.8225,-3.8222,-3.8229,-3.8233,-3.8221,-3.8219,-3.8208,-3.8217,-3.8245,-3.8202,-3.8201,-3.821,-3.827,-3.828,-3.8286,-3.8236,-3.8236,-3.8237,-3.8271,0,-3.8258,-3.8273,-3.826,-3.8277,-3.8282,-3.8263,-3.827,-3.8267,-3.826,-3.8263,-3.8255,-3.8258,-3.8242,-3.8241,-3.8248,-3.824,-3.8257,-3.8237,-3.8242,-3.8242,-3.8244,-3.8291,-3.8302,-3.8334,-3.8275,-3.8275,-3.8276,0,-3.8297,-3.8297,-3.8315,-3.8307,-3.8309,-3.8316,-3.8315,-3.8319,-3.8314,-3.8309,-3.8308,-3.8295,-3.8303,-3.8285,-3.8296,-3.8283,-3.8285,-3.8281,-3.8282,-3.8282,-3.8261,-3.8292,-3.8344,-3.8349,-3.8282,-3.8282,-3.8281,0,-3.8333,-3.8337,-3.8349,-3.8348,-3.8339,-3.8345,-3.8341,-3.8336,-3.8337,-3.8337,-3.8338,-3.8338,-3.8338,-3.8339,-3.8327,-3.8314,-3.834,-3.832,-3.8335,-3.8336,-3.8341,-3.8341,-3.8394,-3.8343,-3.8342,-3.8342,-3.8342,0,-3.837,-3.8382,-3.8365,-3.8372,-3.8385,-3.837,-3.8383,-3.8378,-3.8374,-3.838,-3.8363,-3.8369,-3.8352,-3.8356,-3.8346,-3.8358,-3.8358,-3.8353,-3.8351,-3.8355,-3.8355,-3.8355,-3.8353,-3.8344,-3.8343,-3.8343,-3.8343,0,-3.8412,-3.8401,-3.8413,-3.8404,-3.8402,-3.8412,-3.8404,-3.8411,-3.8403,-3.8411,-3.8412,-3.8399,-3.8404,-3.8391,-3.8393,-3.8387,-3.8404,-3.8397,-3.8405,-3.8403,-3.842,-3.8418,-3.8474,-3.848,-3.8425,-3.8426,-3.8426,0,-3.8436,-3.8445,-3.8438,-3.8441,-3.8438,-3.8443,-3.8445,-3.8431,-3.8433,-3.8429,-3.8436,-3.8439,-3.8441,-3.8448,-3.8439,-3.8441,-3.8435,-3.8454,-3.8435,-3.8439,-3.8435,-3.8435,-3.8436,-3.8458,-3.8459,-3.8459,-3.846,0,-3.848,-3.8475,-3.8478,-3.848,-3.8482,-3.8482,-3.8481,-3.8485,-3.847,-3.8473,-3.8478,-3.8479,-3.8482,-3.8485,-3.8485,-3.8481,-3.8468,-3.8466,-3.847,-3.8474,-3.8478,-3.8476,-3.8416,-3.8465,-3.8464,-3.8464,-3.8463,-3.8463,-3.8514,-3.8522,-3.8518,-3.8522,-3.852,-3.852,-3.8526,-3.8519,-3.8523,-3.8524,-3.8516,-3.8522,-3.8519,-3.8517,-3.8515,-3.852,-3.8511,-3.8516,-3.8518,-3.8519,-3.8522,-3.8478,-3.852,-3.852,-3.852,-3.852,-3.852,0,-3.8558,-3.8555,-3.8559,-3.8559,-3.8562,-3.855,-3.8549,-3.8553,-3.8559,-3.8557,-3.8559,-3.8564,-3.8568,-3.856,-3.8562,-3.8567,-3.8562,-3.8568,-3.8568,-3.8567,-3.853,-3.8527,-3.8573,-3.8573,-3.8573,-3.8573,-3.8573,-3.8573,-3.8581,-3.8593,-3.8587,-3.8598,-3.8595,-3.8602,-3.8602,-3.8602,-3.86,-3.8608,-3.8611,-3.8606,-3.8601,-3.8603,-3.8606,-3.8604,-3.8605,-3.8614,-3.861,-3.8575,-3.857,-3.8565,-3.8562,-3.8615,-3.8615,-3.8647,-3.8647,-3.8647]}]]